Terug naar catalogus

STARLINK-11127

ActiefCommunicatieVLEO
NORAD 60119·PAYLOAD·🇺🇸 United States

Gelanceerd Jun 24, 2024 vanaf Vandenberg Space Force Base

Loading…

Volgende Passages (komende 24 uur)

TLE

VersSource: CelesTrak SupGP

Epoch: Sep 14, 2026, 20:47 UTC

1 60119C 24118G   26257.86645833  .00048129  00000+0  39622-3 0  2573
2 60119  53.1571   8.6622 0001089  66.3902  19.8884 15.69699604    13

Volg STARLINK-11127 in realtime met AllMySat

Download on the App Store